Location: *
(43.2048°N, 0.1612°E)
Time: 21:44:29
(UTC+00:00)

ALOS - Pass Details

Date: 30 September 2023
Orbit: 676 x 679 km, 98.0° (Epoch: 06 December)

Event Time Altitude Azimuth Distance (km) Brightness Sun altitude
Rises 03:49:02 0° 2° (N) 3,051 5.9 -23.4°
Reaches altitude 10° 03:51:30 10° 352° (N) 2,131 4.9 -23.0°
Enters shadow 03:54:01 24° 324° (NW) 1,398 3.7 -22.6°
